North Myrtle Beach, SC

10:45 PM EST on November 13, 2019 (GMT -0500)
Grand Strand

Weather History for KCRE - August, 2019

Change the Weather History Date:

Thursday, August 1, 2019

  Actual Average Record
Temperature  
Mean Temperature 81 °F 80 °F  
Max Temperature 88 °F 87 °F 98 °F (1999)
Min Temperature 74 °F 73 °F 61 °F (2017)
Degree Days  
Heating Degree Days 0 0  
Month to date heating degree days 0 0  
Since 1 June heating degree days 0 0  
Since 1 July heating degree days 0 0  
Cooling Degree Days 16 15  
Month to date cooling degree days 16 15  
Year to date cooling degree days 1308 1060  
Since 1 June cooling degree days 915 848  
Growing Degree Days 32 (Base 50)    
Moisture  
Dew Point 75 °F    
Average Humidity 79    
Maximum Humidity 94    
Minimum Humidity 63    
Precipitation  
Precipitation 0.00 in 0.22 in 3.14 in (1944)
Month to date precipitation 0.00 0.22  
Year to date precipitation 23.01 28.16  
Sea Level Pressure  
Sea Level Pressure 30.06 in    
Wind  
Wind Speed 6 mph (South)    
Max Wind Speed 13 mph    
Max Gust Speed 16 mph    
Visibility 10 miles    
Events      
T = Trace of Precipitation, MM = Missing Value Source: NWS Daily Summary

Daily Weather History Graph

Daily Weather History Graph

Search for Another Location

Airport or City:

Astronomy

Aug. 01, 2019 Rise Set
Actual Time 6:26 AM EDT 8:15 PM EDT
Civil Twilight 5:59 AM EDT 8:42 PM EDT
Nautical Twilight 5:26 AM EDT 9:15 PM EDT
Astronomical Twilight 4:51 AM EDT 9:50 PM EDT
Moon 6:49 AM EDT (8/1) 9:02 PM EDT (8/1)
Length of Visible Light 14h 43m
Length of Day
13h 48m
New Moon, 0% of the Moon is Illuminated
Aug 1
New Moon
Aug 7
First Quarter
Aug 15
Full
Aug 23
Last Quarter
Aug 30
New

Hourly Weather History & Observations

Time (EDT) Temp. Heat Index Dew Point Humidity Pressure Visibility Wind Dir Wind Speed Gust Speed Precip Events Conditions
12:53 AM 80.1 °F 85.4 °F 75.9 °F 87% 30.05 in 10.0 mi Calm Calm - N/A   Clear
1:53 AM 78.1 °F - 75.0 °F 90% 30.05 in 10.0 mi WSW 3.5 mph - N/A   Clear
2:53 AM 77.0 °F - 75.0 °F 94% 30.04 in 10.0 mi Calm Calm - N/A   Clear
3:53 AM 75.9 °F - 73.9 °F 94% 30.04 in 10.0 mi Calm Calm - N/A   Clear
4:53 AM 75.0 °F - 73.9 °F 96% 30.04 in 10.0 mi Calm Calm - N/A   Clear
5:53 AM 75.0 °F - 73.9 °F 96% 30.04 in 6.0 mi Calm Calm - N/A   Clear
6:53 AM 75.0 °F - 73.9 °F 96% 30.06 in 10.0 mi WSW 3.5 mph - N/A   Clear
7:53 AM 78.1 °F - 75.9 °F 93% 30.07 in 10.0 mi West 3.5 mph - N/A   Partly Cloudy
8:53 AM 81.0 °F 86.7 °F 75.0 °F 82% 30.09 in 10.0 mi Variable 4.6 mph - N/A   Clear
9:53 AM 84.9 °F 92.1 °F 73.9 °F 69% 30.10 in 10.0 mi Calm Calm - N/A   Clear
10:53 AM 84.9 °F 93.3 °F 75.0 °F 72% 30.11 in 10.0 mi Variable 5.8 mph - N/A   Clear
11:53 AM 84.9 °F 93.3 °F 75.0 °F 72% 30.11 in 10.0 mi SE 5.8 mph - N/A   Clear
12:53 PM 84.9 °F 94.1 °F 75.9 °F 74% 30.10 in 10.0 mi SSE 6.9 mph - N/A   Scattered Clouds
1:53 PM 87.1 °F 97.3 °F 75.9 °F 69% 30.09 in 10.0 mi South 9.2 mph - N/A   Clear
2:53 PM 88.0 °F 96.5 °F 73.9 °F 63% 30.06 in 10.0 mi South 9.2 mph - N/A   Clear
3:53 PM 88.0 °F 96.5 °F 73.9 °F 63% 30.03 in 10.0 mi South 9.2 mph - N/A   Clear
4:53 PM 86.0 °F 96.0 °F 75.9 °F 72% 30.03 in 10.0 mi South 9.2 mph - N/A   Clear
5:53 PM 84.9 °F 93.3 °F 75.0 °F 72% 30.02 in 10.0 mi South 10.4 mph - N/A   Clear
6:53 PM 84.0 °F 91.9 °F 75.0 °F 74% 30.04 in 10.0 mi South 8.1 mph - N/A   Clear
7:53 PM 84.0 °F 91.9 °F 75.0 °F 74% 30.06 in 10.0 mi SSE 5.8 mph - N/A   Clear
8:53 PM 82.9 °F 90.2 °F 75.0 °F 77% 30.05 in 10.0 mi South 9.2 mph - N/A   Clear
9:53 PM 82.9 °F 89.4 °F 73.9 °F 74% 30.06 in 10.0 mi SSW 10.4 mph - N/A   Clear
10:53 PM 82.0 °F 88.6 °F 75.0 °F 79% 30.08 in 10.0 mi North 4.6 mph - N/A   Clear
11:53 PM 77.0 °F - 72.0 °F 84% 30.09 in 10.0 mi North 8.1 mph - N/A   Scattered Clouds